Location: Cartignies
(50.0929°N, 3.8447°E)
Time: 13:50:36
(UTC+00:00)

SJ-7 - Pass Details

Date: 12 January 2026
Orbit: 495 x 520 km, 97.7° (Epoch: 16 February)

Event Time Altitude Azimuth Distance (km) Brightness Sun altitude
Rises 18:19:05 0° 171° (S) 2,644 7.8 -20.4°
Reaches altitude 10° 18:21:11 10° 174° (S) 1,760 6.9 -20.8°
Maximum altitude 18:24:58 68° 257° (WSW) 569 4.5 -21.4°
Drops below altitude 10° 18:28:46 10° 342° (NNW) 1,770 7.0 -22.0°
Sets 18:30:54 0° 345° (NNW) 2,661 7.9 -22.3°
